Regional Weather Roundup
Issued by NWS

Home | Current Version | Previous Version | Text Only | Print | Product List | Glossary Off
Versions: 1 2 3 4 5 6 7 8 9 10 11 12 13 14 15 16 17 18 19 20 21 22 23 24 25 26 27 28 29 30 31 32 33 34 35 36 37 38 39 40 41 42 43 44 45 46 47 48 49 50

000
ASUS43 KDTX 171910
RWRMI
MICHIGAN HOURLY REGIONAL WEATHER ROUNDUP
NATIONAL WEATHER SERVICE DETROIT/PONTIAC MI
ISSUED BY NATIONAL WEATHER SERVICE GRAND RAPIDS MI
300 PM EDT THU AUG 17 2017

NOTE: "FAIR" INDICATES FEW OR NO CLOUDS BELOW 12,000 FEET WITH NO
SIGNIFICANT WEATHER AND/OR OBSTRUCTION TO VISIBILITY.

MIZ047>049-052>055-059>063-066>070-074>076-081>083-172000-
SOUTHEAST LOWER MICHIGAN

CITY           SKY/WX    TMP DP  RH WIND       PRES   REMARKS
ADRIAN         LGT RAIN  75  72  90 S6        29.81S
ALMA           CLOUDY    77  73  88 S10       29.74S
ANN ARBOR      PTSUNNY   76  74  93 SE8       29.78F
BAD AXE        DRIZZLE   73  70  92 S8        29.78F
DETROIT CITY   RAIN      76  73  91 SW3       29.82S FOG
DETROIT        RAIN      76  74  93 SW7       29.82S FOG
FLINT          CLOUDY    77  72  84 S14       29.75F
GROSSE ILE     RAIN      71  69  93 S9G22     29.81R
HILLSDALE      CLOUDY    77  70  78 S12G17    29.78F
HOWELL         CLOUDY    77  72  83 SE14G20   29.77F

CITY           SKY/WX    TMP DP  RH WIND       PRES   REMARKS
JACKSON          N/A     78  71  79 S15G24    29.77F
LANSING        CLOUDY    78  70  76 S9        29.75F
MASON          CLOUDY    81  73  78 S12G18    29.76F
MONROE         CLOUDY    74  73  95 CALM      29.80F
MT. CLEMENS    LGT RAIN  77  77 100 S8        29.80F FOG
PONTIAC        LGT RAIN  73  72  96 S9        29.78F
PORT HOPE        N/A     71  69  93 SE12      29.76F
PORT HURON     LGT RAIN  77  73  88 S7        29.80F
TRI CITIES     CLOUDY    75  74  96 S9        29.75F FOG
YPSILANTI      LGT RAIN  79  76  90 S6        29.79F
$$
MIZ043>046-050>051-056>058-064>065-071>073-077>080-172000-
SOUTHWEST LOWER MICHIGAN

CITY           SKY/WX    TMP DP  RH WIND       PRES   REMARKS
BATTLE CREEK   PTSUNNY   82  72  71 S14       29.76F
BENTON HARBOR  CLOUDY    82  68  62 SW15      29.74F
BIG RAPIDS     CLOUDY    74  69  83 SW8G16    29.72S
COLDWATER      PTSUNNY   82  73  72 SW12G18   29.78S
HOLLAND        CLOUDY    75  69  81 SW14G22   29.74F
GRAND RAPIDS   PTSUNNY   81  72  74 SW9       29.72F
KALAMAZOO      PTSUNNY   83  68  60 SW8       29.75F
MARSHALL       CLOUDY    81  71  71 S10G16    29.76F
MOUNT PLEASANT CLOUDY    79  72  78 S10       29.72F
MUSKEGON       CLOUDY    75  71  87 S14G22    29.71F
STURGIS        CLOUDY    82  71  68 SW15G22   29.76F
$$
MIZ016>042-172000-
NORTHERN LOWER MICHIGAN

CITY           SKY/WX    TMP DP  RH WIND       PRES   REMARKS
ALPENA         CLOUDY    69  69 100 SE10      29.74F FOG
BEAVER ISLAND  CLOUDY    73  69  86 S9        29.66F
BELLAIRE       CLOUDY    75  68  79 S5        29.67F
CADILLAC       CLOUDY    75  72  88 S10       29.71S
CHARLEVOIX     CLOUDY    76  69  80 SE8       29.69F
GAYLORD        CLOUDY    72  66  81 S14       29.71F
HOUGHTON LAKE  CLOUDY    73  69  87 S9        29.73F
MANISTEE       CLOUDY    75  72  88 S9G18     29.66F
OSCODA         CLOUDY    71  69  94 S10       29.73F FOG
PELLSTON       CLOUDY    73  69  87 SE9       29.69F
TRAVERSE CITY  LGT RAIN  77  70  79 S8G17     29.65S
LUDINGTON      PTSUNNY   76  70  82 S15G25    29.66F
$$
MIZ007>008-015-172000-
EASTERN UPPER MICHIGAN

CITY           SKY/WX    TMP DP  RH WIND       PRES   REMARKS
KINROSS        CLOUDY    65  64  97 SE17      29.73F
MACKINAC ISLAN CLOUDY    66  66 100 E12G23    29.70F FOG
NEWBERRY       CLOUDY    66  65  97 SE9       29.67F
S. S. MARIE    LGT RAIN  65  63  93 E10G17    29.73F FOG
$$
MIZ004>006-011>014-085-172000-
CENTRAL UPPER MICHIGAN

CITY           SKY/WX    TMP DP  RH WIND       PRES   REMARKS
MANISTIQUE     CLOUDY    69  63  81 SE8       29.62F
ESCANABA       CLOUDY    71  69  93 S13       29.58F
MENOMINEE      CLOUDY    80  66  62 SW20G25   29.56F
SAWYER-GWINN   PTSUNNY   73  68  83 S20       29.59S
$$
MIZ001>003-009>011-084-172000-
WESTERN UPPER MICHIGAN

CITY           SKY/WX    TMP DP  RH WIND       PRES   REMARKS
IRON MOUNTAIN  LGT RAIN  74  66  76 S14G25    29.54F
HOUGHTON       FOG       64  63  96 E10       29.55F VSB 1/4
COPPER HARBOR    N/A     62  61  96 S10G21    29.56F
IRONWOOD       RAIN      67  65  93 W9        29.57R
$$

ABBREVIATIONS USED IN REMARKS
   TC - TEMPERATURE IN CELSIUS
  WCI - WIND CHILL INDEX
   HX - HEAT INDEX
  VSB - VISIBILITY




USA.gov is the U.S. government's official web portal to all federal, state and local government web resources and services.